Location: Marse
(42.1502°N, 110.9866°W)
Time: 08:50:23
(UTC+00:00)

Oscar 19 - Pass Details

Date: 04 July 2022
Orbit: 773 x 790 km, 98.8° (Epoch: 13 August)

Event Time Altitude Azimuth Distance (km) Brightness Sun altitude
Rises 10:30:54 0° 19° (NNE) 3,259 15.2 -12.5°
Reaches altitude 10° 10:33:18 10° 26° (NNE) 2,327 14.4 -12.2°
Maximum altitude 10:38:15 47° 100° (E) 1,018 11.5 -11.6°
Drops below altitude 10° 10:43:09 10° 174° (S) 2,313 12.7 -11.0°
Enters shadow 10:44:54 - 178° (S) 2,992 13.3 -10.7°
